[[{"header":{"parameterUnit":"m.s-1","parameterCategory":1,"la1":30.2991,"la2":30.254,"lo1":-89.0895,"lo2":-89.0444,"dy":0.0017,"dx":0.0017,"nx":28,"ny":28,"refTime":"2023-10-09T03:00:00:Z","depth":0,"parameterNumber":2,"parameterNumberName":"U-component_of_WINDS"},"data":[0,0,0,0,0,0,0,0,0,0,0,0,0,0,0,0,0,0,0,0,0,0,0,0,0,0,0,0,0,0,0,0,0,0,0,0,0,0,0,0,0,0,0,0,0,0,0,0,0,0,0,0,0,0,0,0,0,0,1.0479,1.048,0,1.0546,1.0547,1.0548,1.0593,1.0594,1.0594,1.0594,1.0662,1.0663,1.0664,0,0,0,0,0,0,0,0,0,0,0,0,0,1.039,1.0391,1.0479,1.048,1.0481,1.0546,1.0547,1.0548,1.0593,1.0594,1.0594,1.0595,1.0661,1.0663,1.0665,0,0,0,0,0,0,0,0,0,0,0,0,0,1.044,1.0392,1.0479,1.0511,1.0515,1.0546,1.0547,1.0548,1.0593,1.0594,1.0594,1.0595,1.066,1.0663,1.0665,1.0668,0,0,1.0672,1.0672,0,0,0,0,0,0,0,0,1.0437,1.0443,1.0506,1.0509,1.0513,1.0562,1.054,1.0588,1.0593,1.0564,1.0594,1.0595,1.0628,1.0633,1.0644,1.0671,1.0674,1.0672,1.0673,1.0674,1.0675,0,0,0,0,0,0,0,1.0433,1.044,1.0506,1.0507,1.0511,1.0522,1.053,1.0549,1.0592,1.0566,1.057,1.0577,1.063,1.0642,1.0646,1.0675,1.0672,1.0674,1.0675,1.0676,1.071,1.0709,0,0,0,0,0,0,1.0425,1.0437,1.0503,1.0508,1.0476,1.0524,1.0532,1.0546,1.0592,1.0599,1.0577,1.0579,1.0638,1.0644,1.0649,1.0657,1.0674,1.0676,1.0677,1.071,1.071,1.0709,0,0,0,0,0,0,1.0423,1.043,1.0501,1.0473,1.0483,1.0525,1.054,1.0547,1.0559,1.06,1.0607,1.0581,1.0639,1.0646,1.0663,1.0659,1.0677,1.0679,1.0711,1.071,1.071,1.0672,0,0,0,0,0,0,1.042,1.0429,1.0431,1.0473,1.0485,1.0514,1.0539,1.0548,1.0563,1.0567,1.0606,1.0613,1.064,1.066,1.0666,1.0663,1.0681,1.0711,1.071,1.071,1.0673,1.067,1.0667,0,0,0,0,0,1.0417,1.0417,1.0431,1.0439,1.0488,1.0514,1.0521,1.0551,1.0562,1.0564,1.0591,1.0612,1.0659,1.0661,1.0668,1.0666,1.0712,1.0711,1.071,1.0675,1.067,1.0667,0,0,0,0,0,0,1.0373,1.0423,1.0439,1.0453,1.0479,1.0522,1.0525,1.0546,1.0569,1.0571,1.0608,1.0617,1.0631,1.065,1.0652,1.0672,1.0688,1.0688,1.0659,1.0655,1.0652,1.0647,1.0683,0,0,0,0,0,1.0365,1.0382,1.0425,1.0434,1.0446,1.0483,1.0496,1.0518,1.0546,1.0557,1.0585,1.0611,1.0632,1.0645,1.0666,1.0677,1.0686,1.0679,1.0675,1.0672,1.0672,1.068,1.0677,1.0706,1.0706,1.0706,0,0,1.0348,1.0378,1.0387,1.0426,1.0448,1.0466,1.0492,1.0509,1.0522,1.0559,1.0578,1.0599,1.0631,1.0646,1.0653,1.0662,1.0666,1.0671,1.0668,1.067,1.0679,1.0676,1.0674,1.0706,1.0706,1.0706,0,0,1.0327,1.0351,1.0361,1.0384,1.0418,1.0443,1.0446,1.0486,1.0501,1.0521,1.055,1.0566,1.0601,1.0623,1.0638,1.0627,1.0647,1.0633,1.0615,1.0622,1.062,1.0618,1.0615,1.0613,1.0633,1.0632,1.0632,0,1.0302,1.033,1.0364,1.0379,1.0396,1.0431,1.0442,1.0462,1.0501,1.0512,1.0521,1.0567,1.059,1.0611,1.0609,1.062,1.0624,1.0628,1.0618,1.0616,1.0615,1.0612,1.0611,1.063,1.0631,1.0631,1.0631,0,1.0297,1.0316,1.032,1.0358,1.0375,1.0388,1.0424,1.0437,1.0458,1.0482,1.0502,1.0532,1.0561,1.0567,1.0587,1.0591,1.0596,1.0611,1.0627,1.061,1.0608,1.0607,1.0628,1.0628,1.0629,1.0629,0,0,1.0249,1.0307,1.0308,1.0327,1.0368,1.0383,1.0398,1.0426,1.0437,1.0463,1.0477,1.0506,1.0521,1.0539,1.0562,1.0568,1.0558,1.0583,1.0585,1.0578,1.0565,1.0553,1.0551,1.0572,1.0572,1.0572,1.0563,0,1.0235,1.0264,1.0296,1.0314,1.0332,1.0366,1.0379,1.0406,1.0429,1.0448,1.0473,1.0494,1.0512,1.0523,1.0531,1.0558,1.0556,1.0559,1.0585,1.0586,1.0576,1.055,1.0538,1.0527,1.0562,1.0562,1.0562,0,1.0221,1.0247,1.0267,1.0308,1.0317,1.0328,1.0357,1.0375,1.0406,1.0422,1.0443,1.0467,1.0485,1.0499,1.0524,1.0525,1.0538,1.0553,1.0554,1.0557,1.0572,1.0553,1.0525,1.0523,1.0561,1.0561,1.0561,0,1.0185,1.0225,1.0242,1.0256,1.0304,1.0311,1.0331,1.0363,1.0379,1.0404,1.0415,1.0442,1.0457,1.0477,1.0509,1.0516,1.0531,1.0547,1.0545,1.0544,1.0546,1.0545,1.0519,1.0554,1.0554,1.0554,1.0554,0,1.0166,1.0177,1.0227,1.0237,1.0251,1.0287,1.0299,1.0322,1.0351,1.0366,1.0398,1.0412,1.0452,1.0471,1.0496,1.0513,1.0519,1.0533,1.054,1.0531,1.0529,1.0539,1.0541,1.0553,1.0554,1.0554,1.0554,0,1.0127,1.0161,1.0182,1.0226,1.0238,1.0246,1.0283,1.0295,1.032,1.034,1.0346,1.0386,1.041,1.0444,1.0478,1.0494,1.0508,1.0518,1.0498,1.0502,1.0497,1.0497,1.0477,1.0476,1.0511,1.051,1.051,0,1.0113,1.0122,1.0167,1.018,1.02,1.022,1.0237,1.0273,1.0289,1.0326,1.0333,1.036,1.0383,1.042,1.0452,1.0478,1.0489,1.048,1.0493,1.0484,1.049,1.0489,1.049,1.0477,1.0476,1.0476,1.0476,0,1.0083,1.01,1.0123,1.0152,1.0171,1.0195,1.0221,1.023,1.0272,1.0288,1.0313,1.0331,1.0367,1.0393,1.0424,1.0445,1.0467,1.0471,1.0472,1.0463,1.0451,1.0458,1.0489,1.0472,1.0472,1.0472,1.0473,1.0473,1.0057,1.0067,1.0101,1.0125,1.0149,1.0172,1.0186,1.0214,1.0236,1.0268,1.0288,1.0312,1.0344,1.0388,1.0408,1.0428,1.0437,1.0438,1.0438,1.0438,1.0435,1.0448,1.0433,1.0434,1.0434,1.0434,1.0434,0,1.0029,1.0053,1.0075,1.0111,1.013,1.0151,1.0181,1.0195,1.0217,1.0245,1.0268,1.0297,1.0323,1.0357,1.0385,1.0395,1.0406,1.0401,1.0401,1.0405,1.0425,1.0422,1.0392,1.0392,1.0392,1.0392,1.0392,1.0392,1.0017,1.0036,1.0057,1.0088,1.0112,1.0136,1.0152,1.0174,1.0197,1.0228,1.025,1.0273,1.0303,1.0334,1.0359,1.0369,1.0377,1.0369,1.0382,1.04,1.0404,1.0407,1.0404,1.0371,1.0371,1.0361,1.036,1.036]},{"header":{"parameterUnit":"m.s-1","parameterCategory":1,"la1":30.2991,"la2":30.254,"lo1":-89.0895,"lo2":-89.0444,"dy":0.0017,"dx":0.0017,"nx":28,"ny":28,"refTime":"2023-10-09T03:00:00:Z","depth":0,"parameterNumber":3,"parameterNumberName":"V-component_of_WINDS"},"data":[0,0,0,0,0,0,0,0,0,0,0,0,0,0,0,0,0,0,0,0,0,0,0,0,0,0,0,0,0,0,0,0,0,0,0,0,0,0,0,0,0,0,0,0,0,0,0,0,0,0,0,0,0,0,0,0,0,0,-1.0395,-1.0395,0,-1.0436,-1.0436,-1.0437,-1.044,-1.0439,-1.0439,-1.0438,-1.0482,-1.0483,-1.0485,0,0,0,0,0,0,0,0,0,0,0,0,0,-1.0319,-1.0321,-1.0395,-1.0395,-1.0396,-1.0436,-1.0436,-1.0437,-1.044,-1.0439,-1.0439,-1.0438,-1.0481,-1.0483,-1.0485,0,0,0,0,0,0,0,0,0,0,0,0,0,-1.0356,-1.0321,-1.0395,-1.0402,-1.0403,-1.0436,-1.0436,-1.0437,-1.044,-1.0439,-1.0439,-1.0438,-1.0481,-1.0483,-1.0485,-1.0514,0,0,-1.0493,-1.0494,0,0,0,0,0,0,0,0,-1.0354,-1.0358,-1.04,-1.0401,-1.0403,-1.0432,-1.0426,-1.0463,-1.044,-1.0426,-1.0438,-1.0438,-1.0466,-1.0469,-1.0479,-1.0516,-1.0518,-1.0493,-1.0494,-1.0495,-1.0496,0,0,0,0,0,0,0,-1.0351,-1.0357,-1.0411,-1.0401,-1.0402,-1.0404,-1.0408,-1.0433,-1.0449,-1.0427,-1.0427,-1.0432,-1.0466,-1.0476,-1.048,-1.0519,-1.0493,-1.0495,-1.0496,-1.0497,-1.0582,-1.0582,0,0,0,0,0,0,-1.0347,-1.0355,-1.041,-1.0412,-1.0376,-1.0405,-1.041,-1.0423,-1.0449,-1.0452,-1.0433,-1.0432,-1.0473,-1.0477,-1.0481,-1.0516,-1.0495,-1.0498,-1.0499,-1.0581,-1.0582,-1.0583,0,0,0,0,0,0,-1.0345,-1.0352,-1.0408,-1.0383,-1.0391,-1.0407,-1.0422,-1.0424,-1.0434,-1.0453,-1.0456,-1.044,-1.0472,-1.0478,-1.0506,-1.0518,-1.0499,-1.0501,-1.058,-1.0581,-1.0582,-1.0587,0,0,0,0,0,0,-1.0343,-1.0351,-1.0362,-1.0384,-1.0392,-1.0431,-1.0423,-1.0426,-1.0438,-1.0438,-1.0461,-1.0464,-1.0472,-1.0502,-1.0508,-1.0521,-1.0503,-1.0579,-1.058,-1.0582,-1.0585,-1.0588,-1.059,0,0,0,0,0,-1.034,-1.0362,-1.0363,-1.0369,-1.0406,-1.0432,-1.0437,-1.0446,-1.0439,-1.045,-1.0463,-1.0463,-1.0516,-1.0505,-1.0512,-1.0525,-1.0578,-1.058,-1.0582,-1.0585,-1.0587,-1.059,0,0,0,0,0,0,-1.0342,-1.0365,-1.0366,-1.0395,-1.0411,-1.0432,-1.0447,-1.0448,-1.0467,-1.0466,-1.0477,-1.0482,-1.0509,-1.052,-1.0508,-1.0554,-1.0546,-1.055,-1.0546,-1.0549,-1.0551,-1.0548,-1.0505,0,0,0,0,0,-1.0345,-1.0364,-1.0384,-1.0408,-1.0416,-1.043,-1.0442,-1.0447,-1.0465,-1.0472,-1.0486,-1.0504,-1.0524,-1.0537,-1.0557,-1.0587,-1.0592,-1.06,-1.0602,-1.0604,-1.0606,-1.0623,-1.0627,-1.0589,-1.0589,-1.0589,0,0,-1.0353,-1.0368,-1.0379,-1.0408,-1.0422,-1.0441,-1.0436,-1.0457,-1.0472,-1.0475,-1.0502,-1.0513,-1.0534,-1.0562,-1.0576,-1.0572,-1.0618,-1.0606,-1.0607,-1.0609,-1.0625,-1.0629,-1.0632,-1.059,-1.059,-1.0589,0,0,-1.0377,-1.039,-1.0411,-1.0425,-1.0445,-1.0454,-1.0459,-1.048,-1.0488,-1.0515,-1.0518,-1.0536,-1.0571,-1.0585,-1.0597,-1.0627,-1.0628,-1.0633,-1.0644,-1.066,-1.0663,-1.0666,-1.0676,-1.0679,-1.0635,-1.0635,-1.0635,0,-1.0384,-1.0413,-1.0422,-1.0443,-1.0455,-1.0459,-1.0481,-1.0494,-1.052,-1.0528,-1.0524,-1.0568,-1.0582,-1.0614,-1.0621,-1.0631,-1.0637,-1.063,-1.0662,-1.0665,-1.0667,-1.0677,-1.0681,-1.0636,-1.0636,-1.0636,-1.0636,0,-1.0421,-1.0441,-1.0456,-1.048,-1.0494,-1.0516,-1.0528,-1.0542,-1.0546,-1.0556,-1.0583,-1.06,-1.0623,-1.0632,-1.0636,-1.0665,-1.0662,-1.066,-1.0651,-1.0671,-1.068,-1.0684,-1.0636,-1.0636,-1.0636,-1.0636,0,0,-1.0446,-1.0475,-1.048,-1.0491,-1.0514,-1.053,-1.0552,-1.0574,-1.0585,-1.0603,-1.0621,-1.0651,-1.0649,-1.0663,-1.0669,-1.0683,-1.0705,-1.0679,-1.068,-1.0683,-1.0737,-1.0738,-1.0742,-1.0706,-1.0707,-1.0708,-1.0735,0,-1.0472,-1.0509,-1.0518,-1.0551,-1.057,-1.0574,-1.0593,-1.0609,-1.0619,-1.0637,-1.0648,-1.0668,-1.0665,-1.0673,-1.0687,-1.0699,-1.0716,-1.0697,-1.0723,-1.0724,-1.0717,-1.0747,-1.0748,-1.0773,-1.0739,-1.0739,-1.074,0,-1.0507,-1.0525,-1.0559,-1.0579,-1.0588,-1.0604,-1.0625,-1.0643,-1.0661,-1.0667,-1.0682,-1.0687,-1.071,-1.0702,-1.0733,-1.0721,-1.0732,-1.074,-1.0741,-1.0743,-1.0733,-1.075,-1.0782,-1.0785,-1.0746,-1.0745,-1.0745,0,-1.0521,-1.0554,-1.0579,-1.0588,-1.0613,-1.0624,-1.0635,-1.0653,-1.0666,-1.0685,-1.0693,-1.0714,-1.0726,-1.0743,-1.0753,-1.0746,-1.0784,-1.0776,-1.079,-1.079,-1.0797,-1.0796,-1.0831,-1.0806,-1.0805,-1.0805,-1.0805,0,-1.0549,-1.0569,-1.0586,-1.0601,-1.0624,-1.0634,-1.0657,-1.0668,-1.0684,-1.0702,-1.0707,-1.0724,-1.0737,-1.0755,-1.0764,-1.0789,-1.0794,-1.08,-1.0802,-1.0799,-1.0798,-1.0806,-1.0804,-1.0806,-1.0806,-1.0806,-1.0806,0,-1.0568,-1.058,-1.0607,-1.0628,-1.0634,-1.065,-1.0668,-1.0683,-1.0693,-1.0715,-1.0721,-1.0737,-1.0759,-1.0771,-1.0799,-1.0805,-1.0833,-1.0834,-1.0826,-1.0827,-1.0839,-1.0838,-1.0879,-1.0885,-1.0857,-1.0857,-1.0857,0,-1.0585,-1.0601,-1.0623,-1.0635,-1.0646,-1.0665,-1.0678,-1.0689,-1.0702,-1.0725,-1.0737,-1.0759,-1.0777,-1.0812,-1.0827,-1.0848,-1.085,-1.0863,-1.0853,-1.085,-1.0849,-1.0848,-1.0849,-1.0864,-1.0865,-1.0865,-1.0865,0,-1.0613,-1.0618,-1.0636,-1.0656,-1.0672,-1.0688,-1.0705,-1.0715,-1.0728,-1.0743,-1.0765,-1.0779,-1.0808,-1.083,-1.0852,-1.0864,-1.0867,-1.0868,-1.0872,-1.0869,-1.0864,-1.0866,-1.083,-1.0867,-1.0867,-1.0867,-1.0867,-1.0866,-1.0631,-1.0645,-1.0663,-1.0683,-1.0697,-1.0712,-1.0727,-1.0739,-1.0758,-1.0781,-1.0787,-1.081,-1.0828,-1.0859,-1.0871,-1.089,-1.0887,-1.0893,-1.0895,-1.0896,-1.0896,-1.0861,-1.0894,-1.0894,-1.0894,-1.0894,-1.0894,0,-1.0659,-1.067,-1.0689,-1.0712,-1.0728,-1.0729,-1.0747,-1.0761,-1.0781,-1.0798,-1.0815,-1.0841,-1.0862,-1.0879,-1.09,-1.0912,-1.0914,-1.0918,-1.0917,-1.0919,-1.0897,-1.0891,-1.0916,-1.0916,-1.0916,-1.0916,-1.0916,-1.0916,-1.0675,-1.0699,-1.0706,-1.0737,-1.0749,-1.0771,-1.0781,-1.0796,-1.0809,-1.0837,-1.0855,-1.0865,-1.0882,-1.0905,-1.0925,-1.0929,-1.0936,-1.0939,-1.0944,-1.0923,-1.0921,-1.0918,-1.0913,-1.0941,-1.0941,-1.0964,-1.0964,-1.0964]}]]